Home   Weather   Alexandria   Past weeks
Flag for Egypt

Past Weather in Alexandria, Egypt — Yesterday and Last 2 Weeks

Now
84 °F

Scattered clouds.


Feels Like: 90 °F
Forecast: 85 / 79 °F
Wind: 10 mph from Northwest

Location: Alexandria / Nouzha

Current Time: Jul 22, 2019 at 12:19:59 pm

Latest Report: Jul 22, 2019 at 11:00 am


Visibility: N/A

Pressure: 29.80 "Hg

Humidity: 66%

Dew Point: 72 °F

Location of AlexandriaLocation

Past Weather in Alexandria — Graph

°F

Alexandria Temperature Yesterday

Maximum temperature yesterday: 88 °F (at 3:00 pm)
Minimum temperature yesterday: 79 °F (at 12:00 am)
Average temperature yesterday: 82 °F

High & Low Weather Summary for the Past Weeks

 TemperatureHumidityPressure
High100 °F (Jul 16, 3:00 pm)94% (Jul 16, 4:00 am)29.92 "Hg (Jul 16, 4:00 am)
Low73 °F (Jul 14, 6:00 am)27% (Jul 16, 4:00 pm)29.59 "Hg (Jul 16, 8:00 pm)
Average83 °F66%29.78 "Hg
* Reported Jul 7 10:00 am — Jul 22 10:00 am, Alexandria. Weather by CustomWeather, © 2019

Note: Actual official high and low records may vary slightly from our data, if they occured in-between our weather recording intervals... More about our weather records

Advertising

Alexandria Weather History for the Previous 24 Hours

Scroll right to see more
 ConditionsComfort  
Time TempWeatherWind HumidityBarometerVisibility
10:00 am
Mon, Jul 22
84 °FScattered clouds.12 mph66%29.80 "HgN/A
9:00 am82 °FScattered clouds.12 mph66%29.80 "HgN/A
8:00 am82 °FScattered clouds.9 mph66%29.80 "HgN/A
7:00 am81 °FScattered clouds.9 mph70%29.77 "HgN/A
6:00 am79 °FScattered clouds.8 mph74%29.77 "HgN/A
5:00 am79 °FPassing clouds.9 mph74%29.77 "HgN/A
4:00 am77 °FPassing clouds.12 mph83%29.80 "HgN/A
3:00 am79 °FPassing clouds.9 mph79%29.80 "HgN/A
2:00 am79 °FPassing clouds.12 mph74%29.80 "HgN/A
1:00 am79 °FPassing clouds.12 mph79%29.83 "HgN/A
12:00 am79 °FPassing clouds.9 mph74%29.83 "HgN/A
11:00 pm
Sun, Jul 21
79 °FPassing clouds.12 mph74%29.83 "HgN/A
10:00 pm81 °FPassing clouds.14 mph74%29.83 "HgN/A
9:00 pm81 °FPassing clouds.13 mph74%29.83 "HgN/A
8:00 pm81 °FPassing clouds.12 mph74%29.83 "HgN/A
7:00 pm81 °FScattered clouds.12 mph70%29.83 "HgN/A
6:00 pm82 °FScattered clouds.14 mph66%29.83 "HgN/A
5:00 pm84 °FScattered clouds.14 mph62%29.83 "HgN/A
4:00 pm84 °FScattered clouds.16 mph62%29.83 "HgN/A
3:00 pm88 °FScattered clouds.18 mph59%29.83 "HgN/A
1:00 pm86 °FScattered clouds.13 mph59%29.89 "HgN/A
12:00 pm86 °FScattered clouds.14 mph59%29.89 "HgN/A
Weather by CustomWeather, © 2019

See weather overview